Regional Weather Roundup
Issued by NWS

Home | Current Version | Previous Version | Graphics & Text | Print | Product List | Glossary On
Versions: 1 2 3 4 5 6 7 8 9 10 11 12 13 14 15 16 17 18 19 20 21 22 23 24 25 26 27 28 29 30 31 32 33 34 35 36 37 38 39 40 41 42 43 44 45 46 47 48 49 50
444
ASUS44 KLIX 211001
RWRLA
LOUISIANA WEATHER ROUNDUP
NATIONAL WEATHER SERVICE NEW ORLEANS LA
500 AM CDT SUN SEP 21 2014

NOTE: "FAIR" INDICATES FEW OR NO CLOUDS BELOW 12,000 FEET WITH NO
      SIGNIFICANT WEATHER AND/OR OBSTRUCTIONS TO VISIBILITY.
      SKY/WX - SKY CONDITION AND SIGNIFICANT WEATHER.
      TMP - AIR TEMPERATURE.    DP   - DEWPOINT TEMPERATURE.
      RH  - RELATIVE HUMIDITY.  PRES - PRESSURE.
      HX  - HEAT INDEX.         WCI  - WIND CHILL INDEX.

*  THESE STATIONS ARE NOT NWS OR FAA STATIONS AND ARE NOT UNDER
   NWS QUALITY CONTROL.

LAZ040-048-061>063-065-066-069-211100-
SOUTHEAST LOUISIANA

CITY           SKY/WX    TMP DP  RH WIND       PRES   REMARKS
N.O. AUDUBON     N/A     76  70  83 MISG        N/A
N.O. INTL ARPT CLEAR     76  69  79 E5        29.97R
N.O. LAKEFRONT CLEAR     76  70  82 E14       29.98R
N.O. DOWNTOWN* FAIR      75  66  73 NE7       29.98R
SLIDELL        CLEAR     67  64  90 CALM      29.98R
BATON ROUGE    CLEAR     70  68  93 CALM      30.00R FOG
BOOTHVILLE     CLEAR     80  72  76 E6        29.96R
BELLE CHASSE   CLEAR     72  68  87 CALM      29.97R
BOGALUSA*        N/A     66  63  89 CALM      30.01S
GALLIANO*      NOT AVBL
NEW ROADS*     FAIR      68  68  99 CALM      30.00R FOG
GONZALES*      FAIR      71  70  99 CALM      29.99R
HAMMOND*       NOT AVBL
HOUMA*         CLEAR     71  66  85 CALM      29.97S
PORT FOURCHON* SUNNY     79  73  83 NE7       29.99R

$$

LAZ041-044-053-054-211100-
SOUTHWEST LOUISIANA

CITY           SKY/WX    TMP DP  RH WIND       PRES   REMARKS
LAKE CHARLES   CLEAR     71  68  90 NE6       29.98S
LAFAYETTE      CLEAR     71  70  96 CALM      29.99R
PATTERSON      CLEAR     72  72 100 CALM      30.00S
SALT POINT       N/A     76  73  91 CALM      29.97R
NEW IBERIA     CLEAR     71  69  93 CALM      29.99R
CHENAULT AIRPK NOT AVBL

$$

LAZ027-028-211100-
CENTRAL LOUISIANA

CITY           SKY/WX    TMP DP  RH WIND       PRES   REMARKS
FORT POLK      CLEAR     69  67  93 CALM      30.00S
ALEXANDRIA INT CLEAR     67  66  97 CALM      29.98S FOG
ALEXANDRIA     CLEAR     68  65  90 CALM      30.00S FOG

$$

LAZ001-002-211100-
NORTHWEST LOUISIANA

CITY           SKY/WX    TMP DP  RH WIND       PRES   REMARKS
SHREVEPORT     CLEAR     70  65  84 CALM      30.01R
BARKSDALE AFB  CLEAR     69  69  98 W2        30.01S
DTN SHREVEPORT CLEAR     71  32  23 CALM      30.01S

$$

LAZ014-016-211100-
NORTHEAST LOUISIANA

CITY           SKY/WX    TMP DP  RH WIND       PRES   REMARKS
MONROE         CLEAR     69  68  96 CALM      30.01R
TALLULAH       CLEAR     67  65  93 CALM      30.01R

$$




USA.gov is the U.S. government's official web portal to all federal, state and local government web resources and services.